User: anonymous
Location: Oshawa
(43.9000°N, 78.8670°W)
Time: 16:00:13
(UTC-04:00)
Language:

CARTOSAT-1 - Orbit

View from above orbital plane
View from above orbital plane
View from above satellite
View from above satellite

Ground track
Ground track

The orbit data is extracted from the following two-line orbital elements,

1 28649U 05017A   14263.43882297  .00001063  00000-0  13565-3 0  6216
2 28649 097.8263 335.5781 0002458 053.4625 306.6834 14.83475413507611
Epoch (UTC): 20 September 2014 10:31:54
Eccentricity: 0.0002458
inclination: 97.8263°
perigee height: 616 km
apogee height: 620 km
right ascension of ascending node: 335.5781°
argument of perigee: 53.4625°
revolutions per day: 14.83475413
mean anomaly at epoch: 306.6834°
orbit number at epoch: 50761

The dashed part of the orbit path shows where the satellite is in the earth's shadow,  

DLR